Weather Service Report


161 
ASUS43 KMKX 242311
RWRWI 

WISCONSIN REGIONAL WEATHER ROUNDUP
NATIONAL WEATHER SERVICE MILWAUKEE/SULLIVAN WI
600 PM CDT SUN JUL 24 2016

NOTE: "FAIR" INDICATES FEW OR NO CLOUDS BELOW 12,000 FEET WITH NO
SIGNIFICANT WEATHER AND/OR OBSTRUCTIONS TO VISIBILITY.

WIZ001-002-006>008-014>016-023>028-250000-
NORTHWEST WISCONSIN
  
CITY           SKY/WX    TMP DP  RH WIND       PRES   REMARKS
SUPERIOR ARPT  PTSUNNY   81  62  53 W13       29.84S HX  82           
ASHLAND        SUNNY     82  60  47 W16G23    29.84R HX  82           
HAYWARD        MOSUNNY   80  61  52 W7        29.89R HX  81           
SIREN          SUNNY     81  61  50 NW13      29.91R HX  81           
CUMBERLAND     MOSUNNY   79  59  50 NW10G21   29.92S HX  80           
RICE LAKE      MOSUNNY   79  60  52 W10G18    29.93R HX  80           
CHETEK         SUNNY     81  63  54 MISG      29.91S HX  82           
LADYSMITH      SUNNY     80  63  56 W16       29.91R HX  81           
EAU CLAIRE     SUNNY     83  62  49 W16       29.90R HX  84           
MENOMONIE      SUNNY     83  61  45 W16       29.92R HX  84           
NEW RICHMOND   SUNNY     80  60  50 W12       29.93F HX  81           
OSCEOLA        MOSUNNY   81  61  50 W8        29.95F HX  81           
$$
 
WIZ003>005-009-010-017-018-250000-
NORTH CENTRAL WISCONSIN
  
CITY           SKY/WX    TMP DP  RH WIND       PRES   REMARKS
MANITOWISH WTR MOSUNNY   78  62  57 W14       29.86R HX  80           
ARBOR VITAE    MOSUNNY   82  65  56 W13G18    29.86R HX  83           
WOODRUFF       MOSUNNY   82  65  56 W13G18    29.86R HX  83           
RHINELANDER    MOSUNNY   82  63  52 W12       29.87R HX  83           
EAGLE RIVER    MOSUNNY   80  60  50 W10       29.84R HX  81           
LAND O LAKES   PTSUNNY   80  63  54 W7        29.85R HX  82           
PHILLIPS       PTSUNNY   78  65  63 NW5       29.88R HX  80           
TOMAHAWK       SUNNY     80  62  53 W12       29.88R HX  82           
MEDFORD        PTSUNNY   78  65  64 W18G24    29.89R HX  80           
MERRILL        MOSUNNY   83  66  56 W15G21    29.86R HX  85           
$$
 
WIZ029-030-035-036-043>047-250000-
CENTRAL WISCONSIN
  
CITY           SKY/WX    TMP DP  RH WIND       PRES   REMARKS
WAUSAU         MOSUNNY   83  65  54 W14G23    29.85R HX  85           
MOSINEE        SUNNY     82  64  54 W13G21    29.87R HX  84           
MARSHFIELD     MOSUNNY   82  65  56 W12G22    29.89R HX  84           
STEVENS POINT  MOSUNNY   82  65  56 W10       29.87R HX  84           
WAUPACA        SUNNY     88  65  46 W8G18     29.84R HX  89           
WAUTOMA        SUNNY     87  68  52 W10       29.85R HX  90           
WISC RAPIDS    MOSUNNY   86  64  47 NW12      29.88R HX  87           
CAMP DOUGLAS   MOSUNNY   82  70  66 W13       29.88R HX  85           
$$
 
WIZ011>013-019>022-031-037>040-048>050-250000-
NORTHEAST WISCONSIN
  
CITY           SKY/WX    TMP DP  RH WIND       PRES   REMARKS
ANTIGO         SUNNY     80  64  59 W12       29.86R HX  81           
SHAWANO        MOSUNNY   87  68  53 W15       29.81R HX  90           
OCONTO         SUNNY     86  74  67 W10       29.77R HX  93           
STURGEON BAY   PTSUNNY   84  76  76 W9        29.78F HX  93           
GREEN BAY      SUNNY     85  75  72 W10       29.79S HX  93           
MANITOWOC      MOSUNNY   87  75  67 W9        29.79S HX  96           
APPLETON       MOSUNNY   84  66  54 W12       29.81R HX  86           
CLINTONVILLE   SUNNY     86  64  48 W15G22    29.81R HX  87           
OSHKOSH        MOSUNNY   87  74  64 W10       29.81R HX  95           
$$
 
WIZ032>034-041-042-053>061-250000-
SOUTHWEST WISCONSIN
  
CITY           SKY/WX    TMP DP  RH WIND       PRES   REMARKS
LA CROSSE      MOSUNNY   85  66  53 NW13      29.90R HX  87           
SPARTA         MOSUNNY   83  65  55 W8        29.91R HX  85           
VIROQUA        MOSUNNY   80  65  60 W9        29.94R HX  82           
BOSCOBEL       MOSUNNY   86  69  56 W8        29.91R HX  90           
PRAIRIE DU CHI MOSUNNY   82  64  55 W10       29.91R HX  83           
PLATTEVILLE    SUNNY     85  73  68 NW9       29.90R HX  92           
$$

WIZ056-057-062-063-064-067-068-250000-
SOUTH CENTRAL WISCONSIN
  
CITY           SKY/WX    TMP DP  RH WIND       PRES   REMARKS
REEDSBURG      SUNNY     84  68  58 W12       29.88R HX  88           
BARABOO/DELLS  SUNNY     84  65  52 W9        29.88R HX  85           
LONE ROCK      MOSUNNY   84  67  56 NW12      29.88R HX  86           
MINERAL POINT  SUNNY     86  68  54 NW8       29.90S HX  89           
MADISON        CLOUDY    89  76  65 W10G16    29.84R HX 100           
MIDDLETON      CLOUDY    89  74  62 W12G17    29.87R HX  98           
WATERTOWN      CLOUDY    88  76  69 W9G16     29.84R HX  98           
MONROE         PTSUNNY   88  75  66 W13       29.88R HX  97           
JANESVILLE     MOSUNNY   91  79  66 W12       29.85R HX 107           
$$
 
WIZ051-052-058>065-066-070>072-250000-
SOUTHEAST WISCONSIN
  
CITY           SKY/WX    TMP DP  RH WIND       PRES   REMARKS
MILWAUKEE      PTSUNNY   93  77  59 SW14G24   29.81S HX 107           
WAUKESHA       PTSUNNY   86  77  74 SW17      29.84  HX  97           
MILWAUKEE/TIMM NOT AVBL                                               
RACINE         MOSUNNY   87  73  62 S9        29.84S HX  94           
BURLINGTON     CLOUDY    90  78  68 SW13G18   29.83F HX 104           
KENOSHA        CLOUDY    92  79  65 SW12      29.84F HX 108           
FOND DU LAC    MOSUNNY   89  73  59 W10       29.82R HX  97           
SHEBOYGAN      SUNNY     88  77  69 W7        29.80S HX 100           
WEST BEND      CLOUDY    88  73  62 W12G20    29.83R HX  96           
JUNEAU         MOSUNNY   87  76  70 W9        29.85R HX  97           
$$

LSZ147-162-250000-
LAKE SUPERIOR
  
STATION/POSITION TIME  TEMP    WIND        PRES    WAVE
                       AIR SEA DIR/SP/G            HT/PER
                 (UTC) (F)     (DEG/KT/KT) (MB)    (FT/S)
W MID LAKE BUOY  2250   65 58  250/ 14/ 16 1007.3R   2/ 4
DEVILS ISLAND    2300   68     250/ 16/ 19 1008.9R
SAXON HARBOR     2200   80     300/ 10/ 15 1009.1R
$$
 
LMZ867-665-643>646-250000-
LAKE MICHIGAN
  
STATION/POSITION TIME  TEMP    WIND        PRES    WAVE
                       AIR SEA DIR/SP/G            HT/PER
                 (UTC) (F)     (DEG/KT/KT) (MB)    (FT/S)
CHAMBERS ISLAND  2200   80     180/  3/  8 1007.8F
S GREEN BAY BUOY 2200   78 75  170/  4/  6   N/A
N MID LAKE BUOY  2250   70 68  210/ 16/ 17 1007.3F   4/ 5
NORTHPORT PIER   2200   80     160/  3/  9 1007.8F
KEWAUNEE LAKESHO 2200   61                   N/A
SHEBOYGAN LAKESH 2300   71     180/  4/  5 1009.0R
PORT WASHINGTON  2240   80     250/  9/ 13 1009.5S
MILWAUKEE LAKESH 2210   90     250/ 13/ 16   N/A
S MID LAKE BUOY  2250   78 72  200/ 10/ 12 1009.5R   2/ 4
KENOSHA   LAKESH 2300   72     170/  8/ 10 1009.5F
$$

TC  - TEMPERATURE IN CELSIUS
VSB - VISIBILITY IN STATUTE MILES
WCI - WIND CHILL INDEX
HX  - HEAT INDEX

  

Return to Home page


Western Regional Climate Center, wrcc@dri.edu